[[{"header":{"parameterUnit":"m.s-1","parameterCategory":1,"la1":30.2991,"la2":30.254,"lo1":-89.0895,"lo2":-89.0444,"dy":0.0017,"dx":0.0017,"nx":28,"ny":28,"refTime":"2024-02-29T09:00:00:Z","depth":0,"parameterNumber":2,"parameterNumberName":"U-component_of_WINDS"},"data":[0,0,0,0,0,0,0,0,0,0,0,0,0,0,0,0,0,0,0,0,0,0,0,0,0,0,0,0,0,0,0,0,0,0,0,0,0,0,0,0,0,0,0,0,0,0,0,0,0,0,0,0,0,0,0,0,0,0,-5.4998,-5.4998,0,-5.4961,-5.4961,-5.4961,-5.477,-5.4765,-5.476,-5.4756,-5.4721,-5.4725,-5.4728,0,0,0,0,0,0,0,0,0,0,0,0,0,-5.4906,-5.4909,-5.4998,-5.4997,-5.4997,-5.4961,-5.4961,-5.496,-5.477,-5.4765,-5.4759,-5.4754,-5.472,-5.4724,-5.4728,0,0,0,0,0,0,0,0,0,0,0,0,0,-5.4916,-5.4909,-5.4998,-5.4898,-5.4888,-5.4962,-5.4961,-5.496,-5.4772,-5.4765,-5.4758,-5.4751,-5.4719,-5.4724,-5.4729,-5.4896,0,0,-5.4744,-5.4746,0,0,0,0,0,0,0,0,-5.4915,-5.4919,-5.4913,-5.4905,-5.4894,-5.4863,-5.4915,-5.4939,-5.4773,-5.4816,-5.4756,-5.4748,-5.4774,-5.4774,-5.4782,-5.4895,-5.4893,-5.4744,-5.4747,-5.475,-5.4751,0,0,0,0,0,0,0,-5.4915,-5.492,-5.4983,-5.4913,-5.4902,-5.4856,-5.4849,-5.4919,-5.4834,-5.4812,-5.4798,-5.4796,-5.4768,-5.4778,-5.478,-5.4892,-5.4744,-5.4749,-5.4752,-5.4754,-5.514,-5.5147,0,0,0,0,0,0,-5.4928,-5.492,-5.4985,-5.4982,-5.4888,-5.4863,-5.4856,-5.488,-5.4833,-5.4819,-5.4802,-5.4787,-5.4773,-5.4775,-5.4778,-5.4969,-5.4749,-5.4754,-5.4757,-5.5133,-5.5142,-5.5149,0,0,0,0,0,0,-5.4927,-5.4935,-5.4986,-5.4948,-5.495,-5.4872,-5.49,-5.4883,-5.4893,-5.4825,-5.4809,-5.4828,-5.4768,-5.4771,-5.4868,-5.4966,-5.4756,-5.4761,-5.5124,-5.5135,-5.5146,-5.5355,0,0,0,0,0,0,-5.4925,-5.4936,-5.4998,-5.495,-5.4953,-5.5076,-5.4906,-5.4887,-5.4902,-5.4882,-5.4845,-5.4832,-5.4763,-5.4862,-5.4873,-5.4969,-5.4765,-5.5115,-5.5129,-5.5142,-5.5339,-5.5372,-5.54,0,0,0,0,0,-5.4922,-5.5059,-5.5002,-5.5011,-5.5029,-5.5082,-5.5084,-5.4999,-5.491,-5.4972,-5.4929,-5.4834,-5.4954,-5.4873,-5.4884,-5.4983,-5.5108,-5.5125,-5.5141,-5.5325,-5.5365,-5.5399,0,0,0,0,0,0,-5.512,-5.5051,-5.4987,-5.5112,-5.5105,-5.505,-5.5124,-5.5045,-5.5062,-5.5044,-5.494,-5.4933,-5.5045,-5.5024,-5.4935,-5.5143,-5.5015,-5.5035,-5.5151,-5.5189,-5.5219,-5.522,-5.4769,0,0,0,0,0,-5.5179,-5.5227,-5.5164,-5.5281,-5.528,-5.5204,-5.5224,-5.516,-5.5148,-5.5144,-5.5107,-5.5101,-5.5136,-5.5162,-5.5191,-5.5337,-5.5325,-5.541,-5.5441,-5.5466,-5.5483,-5.5558,-5.5594,-5.5203,-5.5203,-5.5203,0,0,-5.53,-5.5268,-5.5304,-5.532,-5.5306,-5.5359,-5.5202,-5.5265,-5.5303,-5.5153,-5.5241,-5.5216,-5.5201,-5.5322,-5.5374,-5.5308,-5.5589,-5.5487,-5.5508,-5.5511,-5.5578,-5.5615,-5.5648,-5.5214,-5.5212,-5.5211,0,0,-5.5546,-5.5528,-5.5622,-5.5612,-5.5593,-5.5542,-5.5565,-5.5523,-5.5499,-5.5587,-5.5476,-5.5521,-5.5585,-5.5579,-5.5584,-5.5832,-5.5744,-5.5845,-5.6002,-5.6076,-5.6107,-5.6133,-5.622,-5.6252,-5.5862,-5.5863,-5.5863,0,-5.5698,-5.5771,-5.5681,-5.575,-5.576,-5.5628,-5.5723,-5.5719,-5.5712,-5.5722,-5.5649,-5.5727,-5.5708,-5.5825,-5.5886,-5.5896,-5.5919,-5.5846,-5.611,-5.6135,-5.6159,-5.624,-5.6273,-5.5875,-5.5874,-5.5872,-5.5871,0,-5.5959,-5.6013,-5.6092,-5.6087,-5.6106,-5.6189,-5.6111,-5.6142,-5.6078,-5.6035,-5.6126,-5.6099,-5.6121,-5.6145,-5.6083,-5.6255,-5.6214,-5.6128,-5.5996,-5.621,-5.6284,-5.6315,-5.5892,-5.5888,-5.5884,-5.5881,0,0,-5.6325,-5.6271,-5.6301,-5.6297,-5.6268,-5.6308,-5.6386,-5.6406,-5.6434,-5.6435,-5.6496,-5.6556,-5.6475,-5.6482,-5.6419,-5.6484,-5.668,-5.6389,-5.6387,-5.6441,-5.6865,-5.6928,-5.6966,-5.6624,-5.6629,-5.6634,-5.6866,0,-5.6558,-5.6685,-5.6606,-5.6746,-5.6793,-5.6671,-5.6738,-5.6729,-5.6692,-5.6728,-5.6688,-5.673,-5.6622,-5.6625,-5.6684,-5.6644,-5.6763,-5.6626,-5.6679,-5.6682,-5.6683,-5.7005,-5.7071,-5.7291,-5.6895,-5.6899,-5.6903,0,-5.6846,-5.6858,-5.7002,-5.6964,-5.6981,-5.7043,-5.7055,-5.7092,-5.708,-5.7048,-5.7057,-5.6978,-5.7052,-5.6927,-5.7027,-5.6936,-5.6954,-5.6938,-5.6944,-5.6943,-5.6803,-5.7009,-5.7359,-5.7391,-5.6948,-5.6945,-5.6941,0,-5.7095,-5.7148,-5.7241,-5.7242,-5.7201,-5.7247,-5.7232,-5.7213,-5.723,-5.7243,-5.7253,-5.7275,-5.7286,-5.7305,-5.7235,-5.715,-5.7345,-5.7213,-5.732,-5.7322,-5.7363,-5.736,-5.7718,-5.7382,-5.7381,-5.738,-5.738,0,-5.7361,-5.7453,-5.7352,-5.7408,-5.7509,-5.7419,-5.7521,-5.7494,-5.7478,-5.7528,-5.7425,-5.7474,-5.738,-5.7421,-5.7367,-5.7458,-5.7465,-5.7441,-5.7425,-5.7448,-5.7451,-5.7455,-5.7437,-5.7389,-5.7387,-5.7385,-5.7384,0,-5.7654,-5.759,-5.7682,-5.7637,-5.7627,-5.7703,-5.7664,-5.7715,-5.7673,-5.7737,-5.7747,-5.7681,-5.7723,-5.7656,-5.7691,-5.7654,-5.778,-5.7742,-5.7783,-5.7771,-5.788,-5.7869,-5.8249,-5.8294,-5.7933,-5.7937,-5.794,0,-5.7826,-5.7894,-5.7856,-5.7881,-5.7872,-5.7915,-5.7932,-5.7849,-5.7871,-5.7863,-5.7916,-5.7949,-5.797,-5.8044,-5.8,-5.8026,-5.7986,-5.8118,-5.7989,-5.801,-5.7984,-5.7979,-5.7985,-5.8143,-5.8147,-5.8151,-5.8153,0,-5.8137,-5.8103,-5.8131,-5.815,-5.8173,-5.8184,-5.8187,-5.8214,-5.8126,-5.8157,-5.8198,-5.8216,-5.8251,-5.8286,-5.8301,-5.8287,-5.8206,-5.8195,-5.822,-5.8242,-5.8262,-5.825,-5.7851,-5.8186,-5.8182,-5.818,-5.8178,-5.8177,-5.8372,-5.8427,-5.8408,-5.8443,-5.8438,-5.8443,-5.8489,-5.8452,-5.8485,-5.8506,-5.8456,-5.851,-5.8497,-5.8509,-5.8505,-5.8546,-5.8488,-5.8526,-5.8534,-5.8544,-5.856,-5.826,-5.8549,-5.8548,-5.8547,-5.8546,-5.8546,0,-5.8675,-5.8658,-5.8692,-5.8699,-5.8728,-5.865,-5.865,-5.8679,-5.8727,-5.8722,-5.8746,-5.8794,-5.8828,-5.8787,-5.8813,-5.8854,-5.8818,-5.8864,-5.8858,-5.8856,-5.8612,-5.8585,-5.8893,-5.8893,-5.8893,-5.8893,-5.8893,-5.8893,-5.8836,-5.8923,-5.8887,-5.8971,-5.8953,-5.9003,-5.901,-5.9015,-5.9011,-5.9068,-5.9095,-5.9069,-5.905,-5.9074,-5.9102,-5.9089,-5.9102,-5.9161,-5.9135,-5.8907,-5.8873,-5.884,-5.8815,-5.9166,-5.9166,-5.9375,-5.9377,-5.9379]},{"header":{"parameterUnit":"m.s-1","parameterCategory":1,"la1":30.2991,"la2":30.254,"lo1":-89.0895,"lo2":-89.0444,"dy":0.0017,"dx":0.0017,"nx":28,"ny":28,"refTime":"2024-02-29T09:00:00:Z","depth":0,"parameterNumber":3,"parameterNumberName":"V-component_of_WINDS"},"data":[0,0,0,0,0,0,0,0,0,0,0,0,0,0,0,0,0,0,0,0,0,0,0,0,0,0,0,0,0,0,0,0,0,0,0,0,0,0,0,0,0,0,0,0,0,0,0,0,0,0,0,0,0,0,0,0,0,0,-0.2239,-0.2239,0,-0.2263,-0.2263,-0.2263,-0.2321,-0.2322,-0.2323,-0.2324,-0.2349,-0.2348,-0.2348,0,0,0,0,0,0,0,0,0,0,0,0,0,-0.224,-0.2239,-0.2239,-0.2239,-0.224,-0.2263,-0.2263,-0.2263,-0.2321,-0.2322,-0.2324,-0.2325,-0.2349,-0.2348,-0.2348,0,0,0,0,0,0,0,0,0,0,0,0,0,-0.2249,-0.2239,-0.2239,-0.2271,-0.2274,-0.2263,-0.2263,-0.2264,-0.232,-0.2322,-0.2324,-0.2326,-0.2349,-0.2348,-0.2347,-0.2307,0,0,-0.2345,-0.2345,0,0,0,0,0,0,0,0,-0.2248,-0.2249,-0.2266,-0.2269,-0.2272,-0.2291,-0.2272,-0.2278,-0.232,-0.2303,-0.2324,-0.2327,-0.2328,-0.2329,-0.233,-0.2308,-0.2309,-0.2345,-0.2345,-0.2345,-0.2344,0,0,0,0,0,0,0,-0.2248,-0.2248,-0.2249,-0.2266,-0.227,-0.2283,-0.2286,-0.2274,-0.2305,-0.2304,-0.2309,-0.2311,-0.233,-0.233,-0.233,-0.231,-0.2345,-0.2345,-0.2344,-0.2344,-0.2251,-0.2249,0,0,0,0,0,0,-0.2243,-0.2247,-0.2248,-0.2249,-0.2265,-0.2281,-0.2285,-0.2283,-0.2305,-0.231,-0.2309,-0.2313,-0.233,-0.2331,-0.2332,-0.2283,-0.2345,-0.2344,-0.2343,-0.2253,-0.2251,-0.2249,0,0,0,0,0,0,-0.2243,-0.2242,-0.2247,-0.2249,-0.2251,-0.228,-0.2277,-0.2282,-0.2283,-0.2309,-0.2314,-0.2304,-0.2332,-0.2333,-0.2312,-0.2284,-0.2344,-0.2343,-0.2256,-0.2253,-0.225,-0.2186,0,0,0,0,0,0,-0.2242,-0.2242,-0.2228,-0.2249,-0.2251,-0.2227,-0.2275,-0.2282,-0.2281,-0.2287,-0.2305,-0.231,-0.2333,-0.2312,-0.2311,-0.2285,-0.2342,-0.2258,-0.2254,-0.2251,-0.2191,-0.2182,-0.2173,0,0,0,0,0,-0.2242,-0.221,-0.2227,-0.2227,-0.2234,-0.2226,-0.2227,-0.2255,-0.2279,-0.2264,-0.228,-0.2309,-0.2288,-0.231,-0.2309,-0.2282,-0.226,-0.2255,-0.2251,-0.2195,-0.2183,-0.2174,0,0,0,0,0,0,-0.2187,-0.2214,-0.2233,-0.2207,-0.2213,-0.2236,-0.2218,-0.2242,-0.2242,-0.2248,-0.2281,-0.2285,-0.2258,-0.2268,-0.2292,-0.2241,-0.2278,-0.2273,-0.2236,-0.2225,-0.2217,-0.2215,-0.2342,0,0,0,0,0,-0.2171,-0.2163,-0.2187,-0.2161,-0.2164,-0.219,-0.2188,-0.2208,-0.2216,-0.222,-0.2234,-0.2241,-0.2235,-0.2231,-0.2227,-0.2192,-0.2195,-0.2173,-0.2164,-0.2157,-0.2152,-0.213,-0.2119,-0.2234,-0.2234,-0.2234,0,0,-0.214,-0.2153,-0.2147,-0.215,-0.2158,-0.2147,-0.2192,-0.218,-0.2172,-0.2218,-0.2198,-0.2209,-0.2218,-0.2189,-0.2177,-0.2196,-0.212,-0.2151,-0.2145,-0.2144,-0.2124,-0.2113,-0.2104,-0.223,-0.2231,-0.2232,0,0,-0.2077,-0.2087,-0.2065,-0.2071,-0.2081,-0.2098,-0.2092,-0.211,-0.2118,-0.2099,-0.2132,-0.2122,-0.2113,-0.2117,-0.2118,-0.205,-0.2076,-0.2048,-0.2002,-0.198,-0.1971,-0.1963,-0.1937,-0.1927,-0.2043,-0.2043,-0.2043,0,-0.2036,-0.2022,-0.2051,-0.2035,-0.2035,-0.2074,-0.2051,-0.2055,-0.2063,-0.2061,-0.2083,-0.2068,-0.2078,-0.2048,-0.2031,-0.2031,-0.2024,-0.2046,-0.197,-0.1963,-0.1956,-0.1931,-0.1921,-0.2039,-0.204,-0.204,-0.204,0,-0.197,-0.196,-0.1941,-0.1946,-0.1943,-0.1924,-0.1948,-0.1941,-0.196,-0.1974,-0.1952,-0.1963,-0.1961,-0.1956,-0.1975,-0.1927,-0.1938,-0.1964,-0.2002,-0.1941,-0.1917,-0.1908,-0.2034,-0.2035,-0.2036,-0.2037,0,0,-0.1876,-0.1894,-0.1887,-0.1888,-0.19,-0.1891,-0.1872,-0.1869,-0.1861,-0.1864,-0.1847,-0.1836,-0.1859,-0.1859,-0.1879,-0.186,-0.1802,-0.1888,-0.1889,-0.187,-0.1746,-0.1725,-0.1714,-0.1818,-0.1817,-0.1815,-0.1744,0,-0.1815,-0.1784,-0.1807,-0.1771,-0.1759,-0.1794,-0.1776,-0.178,-0.1792,-0.1782,-0.1795,-0.1785,-0.1817,-0.1817,-0.18,-0.1812,-0.1777,-0.1818,-0.1801,-0.18,-0.1797,-0.1703,-0.1682,-0.1614,-0.1736,-0.1734,-0.1733,0,-0.1741,-0.1738,-0.17,-0.171,-0.1706,-0.1691,-0.1687,-0.1678,-0.1682,-0.1692,-0.169,-0.1713,-0.1692,-0.1729,-0.1699,-0.1726,-0.172,-0.1725,-0.1723,-0.1722,-0.1763,-0.1697,-0.1594,-0.1583,-0.172,-0.1721,-0.1722,0,-0.1673,-0.166,-0.1635,-0.1635,-0.1647,-0.1634,-0.1638,-0.1644,-0.1639,-0.1636,-0.1632,-0.1627,-0.1623,-0.1617,-0.1637,-0.1662,-0.1603,-0.1643,-0.1609,-0.1608,-0.1595,-0.1596,-0.1488,-0.1593,-0.1593,-0.1593,-0.1594,0,-0.1602,-0.1577,-0.1604,-0.1588,-0.156,-0.1585,-0.1556,-0.1564,-0.1568,-0.1553,-0.1583,-0.1568,-0.1595,-0.1582,-0.1598,-0.1569,-0.1568,-0.1573,-0.1577,-0.157,-0.1569,-0.1566,-0.1571,-0.1591,-0.1591,-0.1592,-0.1592,0,-0.1522,-0.1539,-0.1514,-0.1525,-0.1527,-0.1506,-0.1515,-0.15,-0.1512,-0.1492,-0.1489,-0.1507,-0.1492,-0.1511,-0.15,-0.151,-0.147,-0.1482,-0.1468,-0.1471,-0.1435,-0.1437,-0.1321,-0.1306,-0.1422,-0.1421,-0.142,0,-0.1475,-0.1456,-0.1465,-0.1456,-0.1458,-0.1445,-0.1439,-0.1462,-0.1454,-0.1454,-0.1438,-0.1426,-0.1418,-0.1393,-0.1405,-0.1394,-0.1406,-0.1365,-0.1404,-0.1396,-0.1402,-0.1403,-0.14,-0.1357,-0.1356,-0.1355,-0.1354,0,-0.139,-0.1398,-0.1389,-0.138,-0.1372,-0.1367,-0.1364,-0.1355,-0.1379,-0.1368,-0.1353,-0.1346,-0.1332,-0.1319,-0.1311,-0.1314,-0.1337,-0.1341,-0.1332,-0.1324,-0.1316,-0.1318,-0.1445,-0.1344,-0.1345,-0.1346,-0.1346,-0.1347,-0.1324,-0.1307,-0.1309,-0.1296,-0.1295,-0.1291,-0.1276,-0.1284,-0.1272,-0.1262,-0.1276,-0.1256,-0.1256,-0.1248,-0.1248,-0.1231,-0.1249,-0.1237,-0.1234,-0.123,-0.1223,-0.1319,-0.123,-0.1231,-0.1231,-0.1231,-0.1231,0,-0.1238,-0.124,-0.1228,-0.1221,-0.121,-0.1231,-0.1228,-0.1216,-0.1199,-0.1197,-0.1187,-0.1167,-0.1153,-0.1162,-0.1149,-0.1134,-0.1144,-0.113,-0.1131,-0.1131,-0.121,-0.1218,-0.1122,-0.1122,-0.1122,-0.1122,-0.1122,-0.1122,-0.1193,-0.1164,-0.1171,-0.1141,-0.1143,-0.1124,-0.1119,-0.1114,-0.1112,-0.1089,-0.1077,-0.1082,-0.1083,-0.107,-0.1057,-0.106,-0.1053,-0.1035,-0.1041,-0.1115,-0.1126,-0.1136,-0.1143,-0.1034,-0.1033,-0.0963,-0.0962,-0.0962]}]]